Location: G�kdere
(37.0328°N, 30.9000°E)
Time: 05:33:54
(UTC+00:00)

Ariane Rocket - Pass Details

Date: 03 March 2021
Orbit: 759 x 771 km, 98.7° (Epoch: 20 April)

Event Time Altitude Azimuth Distance (km) Brightness Sun altitude
Exits shadow 17:01:52 20° 73° (ENE) 1,709 4.2 -14.6°
Maximum altitude 17:02:21 21° 65° (ENE) 1,696 4.3 -14.7°
Drops below altitude 10° 17:06:03 10° 19° (NNE) 2,319 5.3 -15.5°
Sets 17:08:52 0° 3° (N) 3,249 6.3 -16.0°
